| time (UTC) | temp F | wind direction | speed MPH | gust MPH | rain 1hr in | rain 24hr in | rain mn in | humidity % | barometer mb |
| 20260509230056 | 65 | 230 | 4.0 | 13.0 | 0.00 | 0.00 | 0.00 | 50 | 1002.5 |
| 20260509225551 | 65 | 186 | 2.0 | 9.0 | 0.00 | 0.00 | 0.00 | 47 | 1002.4 |
| 20260509225050 | 65 | 216 | 3.0 | 10.0 | 0.00 | 0.00 | 0.00 | 45 | 1002.3 |
| 20260509224552 | 65 | 249 | 4.0 | 10.0 | 0.00 | 0.00 | 0.00 | 43 | 1002.3 |
| 20260509224051 | 65 | 261 | 1.0 | 9.0 | 0.00 | 0.00 | 0.00 | 43 | 1002.3 |
| 20260509223554 | 65 | 234 | 2.0 | 11.0 | 0.00 | 0.00 | 0.00 | 42 | 1002.2 |
| 20260509223056 | 65 | 235 | 2.0 | 11.0 | 0.00 | 0.00 | 0.00 | 42 | 1002.1 |
| 20260509222551 | 65 | 232 | 2.0 | 9.0 | 0.00 | 0.00 | 0.00 | 42 | 1002.1 |
| 20260509222050 | 65 | 236 | 3.0 | 7.0 | 0.00 | 0.00 | 0.00 | 42 | 1002.2 |
| 20260509221553 | 65 | 224 | 1.0 | 5.0 | 0.00 | 0.00 | 0.00 | 42 | 1002.1 |
| 20260509221053 | 66 | 224 | 3.0 | 7.0 | 0.00 | 0.00 | 0.00 | 42 | 1002.0 |
| 20260509220552 | 66 | 256 | 2.0 | 7.0 | 0.00 | 0.00 | 0.00 | 41 | 1001.9 |
| 20260509220052 | 66 | 215 | 3.0 | 9.0 | 0.00 | 0.00 | 0.00 | 42 | 1001.9 |
| 20260509215551 | 66 | 226 | 3.0 | 9.0 | 0.00 | 0.00 | 0.00 | 41 | 1002.0 |
| 20260509215051 | 66 | 145 | 4.0 | 7.0 | 0.00 | 0.00 | 0.00 | 41 | 1002.2 |
| 20260509214610 | 66 | 228 | 2.0 | 7.0 | 0.00 | 0.00 | 0.00 | 40 | 1002.3 |
| 20260509214050 | 67 | 232 | 3.0 | 7.0 | 0.00 | 0.00 | 0.00 | 39 | 1002.3 |
| 20260509213550 | 67 | 186 | 3.0 | 12.0 | 0.00 | 0.00 | 0.00 | 38 | 1002.3 |
| 20260509213051 | 67 | 226 | 3.0 | 12.0 | 0.00 | 0.00 | 0.00 | 37 | 1002.4 |
| 20260509212551 | 67 | 217 | 4.0 | 12.0 | 0.00 | 0.00 | 0.00 | 37 | 1002.4 |
| 20260509212052 | 67 | 185 | 3.0 | 12.0 | 0.00 | 0.00 | 0.00 | 37 | 1002.5 |
| 20260509211550 | 67 | 230 | 3.0 | 12.0 | 0.00 | 0.00 | 0.00 | 36 | 1002.4 |
| 20260509211051 | 67 | 234 | 3.0 | 10.0 | 0.00 | 0.00 | 0.00 | 36 | 1002.4 |
| 20260509210551 | 67 | 211 | 3.0 | 13.0 | 0.00 | 0.00 | 0.00 | 35 | 1002.4 |
| 20260509205550 | 67 | 170 | 3.0 | 8.0 | 0.00 | 0.00 | 0.00 | 34 | 1002.4 |
| 20260509205052 | 67 | 214 | 2.0 | 9.0 | 0.00 | 0.00 | 0.00 | 34 | 1002.6 |
| 20260509204556 | 67 | 0 | 3.0 | 11.0 | 0.00 | 0.00 | 0.00 | 33 | 1002.4 |
| 20260509204052 | 68 | 194 | 3.0 | 11.0 | 0.00 | 0.00 | 0.00 | 31 | 1002.6 |
| 20260509203553 | 69 | 229 | 3.0 | 10.0 | 0.00 | 0.00 | 0.00 | 30 | 1002.7 |
| 20260509203107 | 68 | 221 | 5.0 | 11.0 | 0.00 | 0.00 | 0.00 | 29 | 1002.6 |
| 20260509202552 | 69 | 215 | 3.0 | 11.0 | 0.00 | 0.00 | 0.00 | 29 | 1002.5 |
| 20260509202053 | 69 | 207 | 2.0 | 11.0 | 0.00 | 0.00 | 0.00 | 29 | 1002.7 |
| 20260509201553 | 69 | 225 | 3.0 | 9.0 | 0.00 | 0.00 | 0.00 | 27 | 1002.8 |
| 20260509201053 | 69 | 239 | 3.0 | 10.0 | 0.00 | 0.00 | 0.00 | 27 | 1002.8 |
| 20260509200552 | 69 | 216 | 3.0 | 11.0 | 0.00 | 0.00 | 0.00 | 27 | 1002.8 |
| 20260509200055 | 69 | 215 | 3.0 | 11.0 | 0.00 | 0.00 | 0.00 | 27 | 1002.8 |
| 20260509195552 | 69 | 213 | 3.0 | 17.0 | 0.00 | 0.00 | 0.00 | 27 | 1002.8 |
| 20260509195052 | 69 | 182 | 5.0 | 17.0 | 0.00 | 0.00 | 0.00 | 27 | 1002.9 |
| 20260509194556 | 69 | 225 | 3.0 | 12.0 | 0.00 | 0.00 | 0.00 | 26 | 1002.9 |
| 20260509194051 | 69 | 214 | 3.0 | 12.0 | 0.00 | 0.00 | 0.00 | 25 | 1003.0 |
| 20260509193549 | 69 | 230 | 3.0 | 10.0 | 0.00 | 0.00 | 0.00 | 26 | 1003.2 |
| 20260509193106 | 69 | 194 | 4.0 | 16.0 | 0.00 | 0.00 | 0.00 | 24 | 1003.1 |
| 20260509192553 | 69 | 172 | 4.0 | 17.0 | 0.00 | 0.00 | 0.00 | 25 | 1003.0 |
| 20260509192053 | 69 | 207 | 4.0 | 17.0 | 0.00 | 0.00 | 0.00 | 25 | 1003.1 |
| 20260509191603 | 69 | 197 | 2.0 | 19.0 | 0.00 | 0.00 | 0.00 | 25 | 1003.2 |
| 20260509191053 | 69 | 198 | 7.0 | 19.0 | 0.00 | 0.00 | 0.00 | 25 | 1003.3 |
| 20260509190555 | 69 | 175 | 4.0 | 9.0 | 0.00 | 0.00 | 0.00 | 25 | 1003.3 |
| 20260509190056 | 69 | 184 | 3.0 | 10.0 | 0.00 | 0.00 | 0.00 | 26 | 1003.4 |
| 20260509185551 | 69 | 130 | 4.0 | 10.0 | 0.00 | 0.00 | 0.00 | 26 | 1003.7 |
| 20260509185050 | 69 | 221 | 3.0 | 8.0 | 0.00 | 0.00 | 0.00 | 25 | 1003.6 |
| 20260509184600 | 69 | 230 | 3.0 | 10.0 | 0.00 | 0.00 | 0.00 | 25 | 1003.8 |
| 20260509184050 | 69 | 217 | 4.0 | 10.0 | 0.00 | 0.00 | 0.00 | 26 | 1003.7 |
| 20260509183552 | 69 | 254 | 3.0 | 8.0 | 0.00 | 0.00 | 0.00 | 25 | 1003.9 |
| 20260509183059 | 68 | 229 | 1.0 | 9.0 | 0.00 | 0.00 | 0.00 | 25 | 1004.1 |
| 20260509182555 | 68 | 214 | 3.0 | 10.0 | 0.00 | 0.00 | 0.00 | 26 | 1004.4 |
| 20260509182051 | 68 | 203 | 2.0 | 10.0 | 0.00 | 0.00 | 0.00 | 25 | 1004.3 |
| 20260509181552 | 68 | 223 | 4.0 | 9.0 | 0.00 | 0.00 | 0.00 | 26 | 1004.4 |
| 20260509181052 | 68 | 215 | 3.0 | 9.0 | 0.00 | 0.00 | 0.00 | 24 | 1004.4 |
| 20260509180552 | 69 | 226 | 1.0 | 8.0 | 0.00 | 0.00 | 0.00 | 25 | 1004.4 |
| 20260509180056 | 68 | 235 | 4.0 | 8.0 | 0.00 | 0.00 | 0.00 | 25 | 1004.5 |
| 20260509175551 | 68 | 155 | 3.0 | 8.0 | 0.00 | 0.00 | 0.00 | 26 | 1004.5 |
| 20260509175051 | 68 | 195 | 3.0 | 11.0 | 0.00 | 0.00 | 0.00 | 26 | 1004.7 |
| 20260509174619 | 68 | 180 | 2.0 | 12.0 | 0.00 | 0.00 | 0.00 | 26 | 1004.7 |
| 20260509174050 | 67 | 156 | 4.0 | 14.0 | 0.00 | 0.00 | 0.00 | 26 | 1004.7 |
| 20260509173550 | 67 | 240 | 4.0 | 14.0 | 0.00 | 0.00 | 0.00 | 27 | 1004.6 |
| 20260509173056 | 67 | 153 | 3.0 | 14.0 | 0.00 | 0.00 | 0.00 | 26 | 1004.6 |
| 20260509172550 | 66 | 232 | 4.0 | 9.0 | 0.00 | 0.00 | 0.00 | 25 | 1004.6 |
| 20260509172051 | 67 | 203 | 2.0 | 9.0 | 0.00 | 0.00 | 0.00 | 26 | 1004.6 |
| 20260509171553 | 67 | 295 | 2.0 | 7.0 | 0.00 | 0.00 | 0.00 | 26 | 1004.9 |
| 20260509171050 | 67 | 211 | 2.0 | 12.0 | 0.00 | 0.00 | 0.00 | 26 | 1005.0 |
| 20260509170550 | 68 | 139 | 2.0 | 12.0 | 0.00 | 0.00 | 0.00 | 26 | 1005.1 |
| 20260509170051 | 67 | 166 | 3.0 | 12.0 | 0.00 | 0.00 | 0.00 | 27 | 1005.1 |
| 20260509165551 | 66 | 236 | 3.0 | 9.0 | 0.00 | 0.00 | 0.00 | 27 | 1005.3 |
| 20260509165050 | 66 | 231 | 3.0 | 8.0 | 0.00 | 0.00 | 0.00 | 26 | 1005.4 |
| 20260509164553 | 66 | 208 | 2.0 | 11.0 | 0.00 | 0.00 | 0.00 | 27 | 1005.6 |
| 20260509164050 | 66 | 188 | 3.0 | 11.0 | 0.00 | 0.00 | 0.00 | 27 | 1005.7 |
| 20260509163551 | 66 | 162 | 3.0 | 10.0 | 0.00 | 0.00 | 0.00 | 27 | 1005.7 |
| 20260509163055 | 66 | 254 | 3.0 | 10.0 | 0.00 | 0.00 | 0.00 | 27 | 1005.7 |
| 20260509162553 | 66 | 202 | 2.0 | 10.0 | 0.00 | 0.00 | 0.00 | 27 | 1005.8 |
| 20260509162052 | 66 | 136 | 2.0 | 11.0 | 0.00 | 0.00 | 0.00 | 27 | 1005.9 |
| 20260509161555 | 66 | 294 | 4.0 | 12.0 | 0.00 | 0.00 | 0.00 | 28 | 1006.0 |
| 20260509161055 | 65 | 133 | 4.0 | 12.0 | 0.00 | 0.00 | 0.00 | 28 | 1006.0 |
| 20260509160553 | 65 | 215 | 3.0 | 8.0 | 0.00 | 0.00 | 0.00 | 30 | 1006.0 |
| 20260509160057 | 65 | 171 | 2.0 | 11.0 | 0.00 | 0.00 | 0.00 | 28 | 1006.1 |
| 20260509155556 | 64 | 178 | 3.0 | 11.0 | 0.00 | 0.00 | 0.00 | 31 | 1006.2 |
| 20260509155052 | 64 | 232 | 3.0 | 10.0 | 0.00 | 0.00 | 0.00 | 31 | 1006.5 |
| 20260509154555 | 65 | 249 | 2.0 | 10.0 | 0.00 | 0.00 | 0.00 | 30 | 1006.7 |
| 20260509154052 | 64 | 240 | 3.0 | 10.0 | 0.00 | 0.00 | 0.00 | 32 | 1006.8 |
| 20260509153552 | 64 | 237 | 2.0 | 8.0 | 0.00 | 0.00 | 0.00 | 32 | 1006.9 |
| 20260509153105 | 64 | 238 | 3.0 | 8.0 | 0.00 | 0.00 | 0.00 | 33 | 1007.0 |
| 20260509152553 | 63 | 243 | 1.0 | 11.0 | 0.00 | 0.00 | 0.00 | 36 | 1007.1 |
| 20260509152050 | 64 | 266 | 1.0 | 11.0 | 0.00 | 0.00 | 0.00 | 36 | 1007.1 |
| 20260509151555 | 63 | 0 | 2.0 | 11.0 | 0.00 | 0.00 | 0.00 | 37 | 1007.2 |
| 20260509151056 | 62 | 267 | 3.0 | 9.0 | 0.00 | 0.00 | 0.00 | 38 | 1007.5 |
| 20260509150551 | 62 | 258 | 0.0 | 7.0 | 0.00 | 0.00 | 0.00 | 40 | 1007.6 |
| 20260509150052 | 62 | 264 | 0.0 | 6.0 | 0.00 | 0.00 | 0.00 | 40 | 1007.7 |
| 20260509145551 | 61 | 180 | 1.0 | 6.0 | 0.00 | 0.00 | 0.00 | 42 | 1007.7 |
| 20260509145053 | 60 | 179 | 1.0 | 6.0 | 0.00 | 0.00 | 0.00 | 42 | 1007.8 |
| 20260509144553 | 59 | 0 | 2.0 | 5.0 | 0.00 | 0.00 | 0.00 | 43 | 1007.8 |
| 20260509144050 | 59 | 233 | 1.0 | 7.0 | 0.00 | 0.00 | 0.00 | 43 | 1007.8 |
| 20260509143552 | 59 | 232 | 2.0 | 7.0 | 0.00 | 0.00 | 0.00 | 43 | 1008.0 |
| 20260509143052 | 59 | 237 | 1.0 | 6.0 | 0.00 | 0.00 | 0.00 | 44 | 1008.0 |
| 20260509142553 | 59 | 0 | 1.0 | 7.0 | 0.00 | 0.00 | 0.00 | 42 | 1008.0 |
| 20260509142052 | 58 | 168 | 0.0 | 7.0 | 0.00 | 0.00 | 0.00 | 43 | 1008.1 |
| 20260509141554 | 58 | 163 | 1.0 | 7.0 | 0.00 | 0.00 | 0.00 | 43 | 1008.0 |
| 20260509141053 | 58 | 128 | 1.0 | 7.0 | 0.00 | 0.00 | 0.00 | 44 | 1008.1 |
| 20260509140552 | 57 | 0 | 1.0 | 7.0 | 0.00 | 0.00 | 0.00 | 44 | 1008.1 |
| 20260509140052 | 57 | 163 | 0.0 | 7.0 | 0.00 | 0.00 | 0.00 | 45 | 1008.1 |
| 20260509135553 | 56 | 164 | 1.0 | 7.0 | 0.00 | 0.00 | 0.00 | 45 | 1008.2 |
| 20260509135053 | 55 | 0 | 0.0 | 3.0 | 0.00 | 0.00 | 0.00 | 46 | 1008.1 |
| 20260509134554 | 54 | 145 | 0.0 | 7.0 | 0.00 | 0.00 | 0.00 | 47 | 1008.2 |
| 20260509134050 | 53 | 0 | 0.0 | 7.0 | 0.00 | 0.00 | 0.00 | 49 | 1008.3 |
| 20260509133553 | 53 | 132 | 1.0 | 7.0 | 0.00 | 0.00 | 0.00 | 47 | 1008.3 |
| 20260509133054 | 53 | 0 | 0.0 | 4.0 | 0.00 | 0.00 | 0.00 | 48 | 1008.3 |
| 20260509132551 | 53 | 0 | 0.0 | 4.0 | 0.00 | 0.00 | 0.00 | 49 | 1008.4 |
| 20260509132051 | 52 | 142 | 1.0 | 3.0 | 0.00 | 0.00 | 0.00 | 51 | 1008.4 |
| 20260509131550 | 52 | 148 | 0.0 | 5.0 | 0.00 | 0.00 | 0.00 | 50 | 1008.6 |
| 20260509131050 | 51 | 0 | 0.0 | 5.0 | 0.00 | 0.00 | 0.00 | 53 | 1008.6 |
| 20260509130550 | 50 | 0 | 0.0 | 4.0 | 0.00 | 0.00 | 0.00 | 53 | 1008.7 |
| 20260509130104 | 51 | 0 | 0.0 | 4.0 | 0.00 | 0.00 | 0.00 | 53 | 1008.7 |
| 20260509125553 | 50 | 144 | 0.0 | 4.0 | 0.00 | 0.00 | 0.00 | 54 | 1008.7 |
| 20260509125051 | 49 | 144 | 1.0 | 6.0 | 0.00 | 0.00 | 0.00 | 55 | 1008.9 |
| 20260509124555 | 48 | 158 | 1.0 | 6.0 | 0.00 | 0.00 | 0.00 | 55 | 1008.9 |
| 20260509124053 | 48 | 0 | 1.0 | 5.0 | 0.00 | 0.00 | 0.00 | 55 | 1008.9 |
| 20260509123551 | 48 | 140 | 0.0 | 4.0 | 0.00 | 0.00 | 0.00 | 56 | 1009.0 |
| 20260509123058 | 47 | 140 | 0.0 | 4.0 | 0.00 | 0.00 | 0.00 | 57 | 1008.9 |
| 20260509122552 | 47 | 140 | 1.0 | 4.0 | 0.00 | 0.00 | 0.00 | 57 | 1009.0 |
| 20260509122052 | 46 | 140 | 1.0 | 4.0 | 0.00 | 0.00 | 0.00 | 58 | 1009.0 |
| 20260509121614 | 46 | 135 | 1.0 | 4.0 | 0.00 | 0.00 | 0.00 | 59 | 1009.0 |
| 20260509121050 | 46 | 134 | 0.0 | 4.0 | 0.00 | 0.00 | 0.00 | 59 | 1008.9 |
| 20260509120551 | 45 | 134 | 0.0 | 3.0 | 0.00 | 0.00 | 0.00 | 61 | 1008.9 |
| 20260509120055 | 45 | 0 | 0.0 | 3.0 | 0.00 | 0.00 | 0.00 | 61 | 1008.9 |
| 20260509115550 | 45 | 126 | 1.0 | 3.0 | 0.00 | 0.00 | 0.00 | 60 | 1008.9 |
| 20260509115052 | 45 | 0 | 0.0 | 3.0 | 0.00 | 0.00 | 0.00 | 60 | 1009.0 |
| 20260509114600 | 45 | 0 | 0.0 | 4.0 | 0.00 | 0.00 | 0.00 | 61 | 1008.9 |
| 20260509114052 | 45 | 0 | 0.0 | 4.0 | 0.00 | 0.00 | 0.00 | 61 | 1008.9 |
| 20260509113551 | 45 | 126 | 0.0 | 3.0 | 0.00 | 0.00 | 0.00 | 62 | 1008.8 |
| 20260509113101 | 45 | 0 | 0.0 | 3.0 | 0.00 | 0.00 | 0.00 | 63 | 1008.8 |
| 20260509112550 | 44 | 127 | 0.0 | 4.0 | 0.00 | 0.00 | 0.00 | 63 | 1008.7 |
| 20260509112051 | 44 | 127 | 0.0 | 6.0 | 0.00 | 0.00 | 0.00 | 65 | 1008.8 |
| 20260509111555 | 43 | 0 | 1.0 | 6.0 | 0.00 | 0.00 | 0.00 | 65 | 1008.7 |
| 20260509111053 | 43 | 88 | 0.0 | 3.0 | 0.00 | 0.00 | 0.00 | 66 | 1008.8 |
| 20260509110552 | 42 | 87 | 0.0 | 3.0 | 0.00 | 0.00 | 0.00 | 68 | 1008.8 |
| 20260509110110 | 42 | 82 | 0.0 | 4.0 | 0.00 | 0.00 | 0.00 | 69 | 1008.8 |
| 20260509105550 | 42 | 0 | 0.0 | 4.0 | 0.00 | 0.00 | 0.00 | 69 | 1008.7 |
| 20260509105050 | 41 | 69 | 0.0 | 4.0 | 0.00 | 0.00 | 0.00 | 70 | 1008.7 |
| 20260509104559 | 41 | 0 | 0.0 | 4.0 | 0.00 | 0.00 | 0.00 | 71 | 1008.6 |
| 20260509104051 | 41 | 148 | 0.0 | 4.0 | 0.00 | 0.00 | 0.00 | 71 | 1008.6 |
| 20260509103551 | 41 | 0 | 0.0 | 2.0 | 0.00 | 0.00 | 0.00 | 71 | 1008.5 |
| 20260509103104 | 41 | 0 | 0.0 | 3.0 | 0.00 | 0.00 | 0.00 | 71 | 1008.5 |
| 20260509102550 | 41 | 172 | 0.0 | 3.0 | 0.00 | 0.00 | 0.00 | 71 | 1008.6 |
| 20260509102051 | 41 | 172 | 0.0 | 3.0 | 0.00 | 0.00 | 0.00 | 71 | 1008.6 |
| 20260509101613 | 41 | 0 | 0.0 | 3.0 | 0.00 | 0.00 | 0.00 | 71 | 1008.6 |
| 20260509101050 | 41 | 0 | 1.0 | 3.0 | 0.00 | 0.00 | 0.00 | 70 | 1008.5 |
| 20260509100550 | 41 | 0 | 0.0 | 3.0 | 0.00 | 0.00 | 0.00 | 70 | 1008.3 |
| 20260509100051 | 41 | 173 | 0.0 | 2.0 | 0.00 | 0.00 | 0.00 | 70 | 1008.3 |
| 20260509095549 | 42 | 0 | 0.0 | 2.0 | 0.00 | 0.00 | 0.00 | 70 | 1008.3 |
| 20260509095051 | 42 | 173 | 0.0 | 3.0 | 0.00 | 0.00 | 0.00 | 70 | 1008.3 |
| 20260509094604 | 42 | 0 | 0.0 | 3.0 | 0.00 | 0.00 | 0.00 | 70 | 1008.3 |
| 20260509094053 | 42 | 0 | 0.0 | 3.0 | 0.00 | 0.00 | 0.00 | 70 | 1008.3 |
| 20260509093551 | 42 | 0 | 0.0 | 2.0 | 0.00 | 0.00 | 0.00 | 70 | 1008.3 |
| 20260509093054 | 42 | 0 | 0.0 | 4.0 | 0.00 | 0.00 | 0.00 | 70 | 1008.2 |
| 20260509092551 | 42 | 0 | 0.0 | 4.0 | 0.00 | 0.00 | 0.00 | 70 | 1008.3 |
| 20260509092050 | 42 | 0 | 1.0 | 4.0 | 0.00 | 0.00 | 0.00 | 70 | 1008.2 |
| 20260509091602 | 42 | 0 | 0.0 | 2.0 | 0.00 | 0.00 | 0.00 | 69 | 1008.2 |
| 20260509091050 | 42 | 0 | 0.0 | 2.0 | 0.00 | 0.00 | 0.00 | 69 | 1008.4 |
| 20260509090553 | 42 | 0 | 0.0 | 1.0 | 0.00 | 0.00 | 0.00 | 69 | 1008.4 |
| 20260509090100 | 42 | 0 | 0.0 | 1.0 | 0.00 | 0.00 | 0.00 | 69 | 1008.4 |
| 20260509085550 | 42 | 0 | 0.0 | 2.0 | 0.00 | 0.00 | 0.00 | 69 | 1008.3 |
| 20260509085050 | 42 | 0 | 0.0 | 2.0 | 0.00 | 0.00 | 0.00 | 69 | 1008.3 |
| 20260509084559 | 42 | 0 | 0.0 | 1.0 | 0.00 | 0.00 | 0.00 | 68 | 1008.3 |
| 20260509084050 | 42 | 0 | 0.0 | 0.0 | 0.00 | 0.00 | 0.00 | 68 | 1008.3 |
| 20260509083550 | 42 | 0 | 0.0 | 1.0 | 0.00 | 0.00 | 0.00 | 68 | 1008.3 |
| 20260509083102 | 42 | 0 | 0.0 | 3.0 | 0.00 | 0.00 | 0.00 | 68 | 1008.4 |
| 20260509082551 | 42 | 0 | 0.0 | 3.0 | 0.00 | 0.00 | 0.00 | 68 | 1008.4 |
| 20260509082050 | 42 | 0 | 0.0 | 3.0 | 0.00 | 0.00 | 0.00 | 68 | 1008.4 |
| 20260509081558 | 42 | 0 | 0.0 | 2.0 | 0.00 | 0.00 | 0.00 | 68 | 1008.4 |
| 20260509081051 | 42 | 0 | 0.0 | 2.0 | 0.00 | 0.00 | 0.00 | 68 | 1008.5 |
| 20260509080550 | 42 | 0 | 0.0 | 2.0 | 0.00 | 0.00 | 0.00 | 68 | 1008.5 |
| 20260509075550 | 42 | 0 | 0.0 | 1.0 | 0.00 | 0.00 | 0.00 | 68 | 1008.5 |
| 20260509075053 | 42 | 0 | 0.0 | 1.0 | 0.00 | 0.00 | 0.00 | 68 | 1008.3 |
| 20260509074556 | 43 | 0 | 0.0 | 1.0 | 0.00 | 0.00 | 0.00 | 68 | 1008.5 |
| 20260509074051 | 43 | 260 | 0.0 | 1.0 | 0.00 | 0.00 | 0.00 | 68 | 1008.5 |
| 20260509073551 | 43 | 0 | 0.0 | 1.0 | 0.00 | 0.00 | 0.00 | 68 | 1008.5 |
| 20260509073100 | 43 | 260 | 0.0 | 1.0 | 0.00 | 0.00 | 0.00 | 67 | 1008.5 |
| 20260509072551 | 43 | 0 | 0.0 | 1.0 | 0.00 | 0.00 | 0.00 | 67 | 1008.4 |
| 20260509072052 | 43 | 0 | 0.0 | 1.0 | 0.00 | 0.00 | 0.00 | 67 | 1008.5 |
| 20260509071604 | 43 | 0 | 0.0 | 2.0 | 0.00 | 0.00 | 0.00 | 67 | 1008.5 |
| 20260509071050 | 43 | 0 | 0.0 | 2.0 | 0.00 | 0.00 | 0.00 | 66 | 1008.5 |
| 20260509070552 | 43 | 0 | 0.0 | 1.0 | 0.00 | 0.00 | 0.00 | 66 | 1008.6 |
| 20260509070057 | 44 | 0 | 0.0 | 2.0 | 0.00 | 0.00 | 0.00 | 66 | 1008.5 |
| 20260509065554 | 44 | 0 | 0.0 | 2.0 | 0.00 | 0.00 | 0.00 | 66 | 1008.5 |
| 20260509065051 | 44 | 0 | 0.0 | 2.0 | 0.00 | 0.00 | 0.00 | 65 | 1008.6 |
| 20260509064554 | 44 | 0 | 0.0 | 2.0 | 0.00 | 0.00 | 0.00 | 65 | 1008.6 |
| 20260509064051 | 44 | 0 | 0.0 | 3.0 | 0.00 | 0.00 | 0.00 | 65 | 1008.6 |
| 20260509063554 | 44 | 0 | 0.0 | 3.0 | 0.00 | 0.00 | 0.00 | 65 | 1008.5 |
| 20260509063100 | 44 | 0 | 0.0 | 3.0 | 0.00 | 0.00 | 0.00 | 64 | 1008.6 |
| 20260509062554 | 45 | 0 | 0.0 | 3.0 | 0.00 | 0.00 | 0.00 | 64 | 1008.6 |
| 20260509062050 | 45 | 0 | 0.0 | 2.0 | 0.00 | 0.00 | 0.00 | 64 | 1008.6 |
| 20260509061552 | 45 | 0 | 0.0 | 2.0 | 0.00 | 0.00 | 0.00 | 63 | 1008.6 |
| 20260509061053 | 45 | 0 | 0.0 | 2.0 | 0.00 | 0.00 | 0.00 | 63 | 1008.6 |
| 20260509060553 | 45 | 0 | 0.0 | 2.0 | 0.00 | 0.00 | 0.00 | 63 | 1008.7 |
| 20260509060107 | 45 | 0 | 0.0 | 2.0 | 0.00 | 0.00 | 0.00 | 62 | 1008.8 |
| 20260509055553 | 45 | 0 | 0.0 | 2.0 | 0.00 | 0.00 | 0.00 | 62 | 1008.8 |
| 20260509055052 | 45 | 0 | 0.0 | 2.0 | 0.00 | 0.00 | 0.00 | 62 | 1008.7 |
| 20260509054553 | 46 | 260 | 0.0 | 2.0 | 0.00 | 0.00 | 0.00 | 62 | 1008.9 |
| 20260509054054 | 46 | 0 | 0.0 | 1.0 | 0.00 | 0.00 | 0.00 | 61 | 1008.8 |
| 20260509053554 | 46 | 0 | 0.0 | 3.0 | 0.00 | 0.00 | 0.00 | 61 | 1008.8 |
| 20260509053121 | 46 | 0 | 0.0 | 3.0 | 0.00 | 0.00 | 0.00 | 61 | 1008.7 |
| 20260509052554 | 46 | 0 | 0.0 | 3.0 | 0.00 | 0.00 | 0.00 | 60 | 1008.8 |
| 20260509052050 | 47 | 260 | 0.0 | 4.0 | 0.00 | 0.00 | 0.00 | 60 | 1008.9 |
| 20260509051554 | 47 | 260 | 0.0 | 4.0 | 0.00 | 0.00 | 0.00 | 59 | 1008.9 |
| 20260509051053 | 47 | 260 | 0.0 | 4.0 | 0.00 | 0.00 | 0.00 | 59 | 1008.9 |
| 20260509050554 | 47 | 260 | 1.0 | 3.0 | 0.00 | 0.00 | 0.00 | 59 | 1009.0 |
| 20260509050055 | 47 | 0 | 0.0 | 6.0 | 0.00 | 0.00 | 0.00 | 58 | 1009.0 |
| 20260509045556 | 47 | 259 | 1.0 | 6.0 | 0.00 | 0.00 | 0.00 | 58 | 1008.9 |
| 20260509045054 | 48 | 0 | 1.0 | 6.0 | 0.00 | 0.00 | 0.00 | 57 | 1009.0 |
| 20260509044642 | 48 | 259 | 1.0 | 6.0 | 0.00 | 0.00 | 0.00 | 57 | 1008.8 |
| 20260509044054 | 48 | 259 | 0.0 | 6.0 | 0.00 | 0.00 | 0.00 | 57 | 1008.9 |
| 20260509043553 | 48 | 259 | 1.0 | 6.0 | 0.00 | 0.00 | 0.00 | 56 | 1008.9 |
| 20260509043139 | 48 | 0 | 1.0 | 6.0 | 0.00 | 0.00 | 0.00 | 56 | 1008.9 |
| 20260509042553 | 48 | 277 | 1.0 | 6.0 | 0.00 | 0.00 | 0.00 | 56 | 1008.8 |
| 20260509042053 | 48 | 0 | 2.0 | 6.0 | 0.00 | 0.00 | 0.00 | 56 | 1008.7 |
| 20260509041552 | 48 | 289 | 1.0 | 6.0 | 0.00 | 0.00 | 0.00 | 56 | 1008.7 |
| 20260509041053 | 48 | 0 | 0.0 | 6.0 | 0.00 | 0.00 | 0.00 | 56 | 1008.9 |
| 20260509040553 | 48 | 273 | 0.0 | 6.0 | 0.00 | 0.00 | 0.00 | 56 | 1008.8 |
| 20260509035555 | 48 | 267 | 2.0 | 6.0 | 0.00 | 0.00 | 0.00 | 56 | 1008.8 |
| 20260509035053 | 49 | 277 | 1.0 | 4.0 | 0.00 | 0.00 | 0.00 | 56 | 1008.8 |
| 20260509034553 | 49 | 277 | 0.0 | 7.0 | 0.00 | 0.00 | 0.00 | 56 | 1008.7 |
| 20260509034052 | 49 | 277 | 1.0 | 7.0 | 0.00 | 0.00 | 0.00 | 56 | 1008.7 |
| 20260509033556 | 49 | 0 | 2.0 | 6.0 | 0.00 | 0.00 | 0.00 | 56 | 1008.8 |
| 20260509033055 | 49 | 295 | 1.0 | 5.0 | 0.00 | 0.00 | 0.00 | 56 | 1008.7 |
| 20260509032553 | 49 | 307 | 2.0 | 7.0 | 0.00 | 0.00 | 0.00 | 56 | 1008.6 |
| 20260509032052 | 49 | 246 | 2.0 | 7.0 | 0.00 | 0.00 | 0.00 | 56 | 1008.7 |
| 20260509031602 | 49 | 246 | 2.0 | 7.0 | 0.00 | 0.00 | 0.00 | 56 | 1008.6 |
| 20260509031052 | 49 | 239 | 2.0 | 7.0 | 0.00 | 0.00 | 0.00 | 56 | 1008.7 |
| 20260509030552 | 49 | 249 | 3.0 | 7.0 | 0.00 | 0.00 | 0.00 | 56 | 1008.7 |
| 20260509030110 | 49 | 0 | 2.0 | 8.0 | 0.00 | 0.00 | 0.00 | 55 | 1008.7 |
| 20260509025552 | 49 | 221 | 1.0 | 8.0 | 0.00 | 0.00 | 0.00 | 56 | 1008.6 |
| 20260509025053 | 49 | 237 | 2.0 | 8.0 | 0.00 | 0.00 | 0.00 | 55 | 1008.7 |
| 20260509024552 | 50 | 291 | 2.0 | 8.0 | 0.00 | 0.00 | 0.00 | 55 | 1008.6 |
| 20260509024052 | 50 | 231 | 3.0 | 8.0 | 0.00 | 0.00 | 0.00 | 55 | 1008.6 |
| 20260509023556 | 50 | 283 | 2.0 | 8.0 | 0.00 | 0.00 | 0.00 | 55 | 1008.6 |
| 20260509023050 | 50 | 240 | 2.0 | 7.0 | 0.00 | 0.00 | 0.00 | 54 | 1008.6 |
| 20260509022552 | 50 | 250 | 2.0 | 7.0 | 0.00 | 0.00 | 0.00 | 54 | 1008.6 |
| 20260509022056 | 50 | 274 | 2.0 | 8.0 | 0.00 | 0.00 | 0.00 | 54 | 1008.5 |
| 20260509021555 | 50 | 223 | 1.0 | 9.0 | 0.00 | 0.00 | 0.00 | 54 | 1008.6 |
| 20260509021056 | 50 | 252 | 2.0 | 9.0 | 0.00 | 0.00 | 0.00 | 54 | 1008.5 |
| 20260509020552 | 50 | 236 | 3.0 | 8.0 | 0.00 | 0.00 | 0.00 | 53 | 1008.6 |
| 20260509020104 | 50 | 235 | 1.0 | 8.0 | 0.00 | 0.00 | 0.00 | 53 | 1008.5 |
| 20260509015552 | 50 | 252 | 1.0 | 8.0 | 0.00 | 0.00 | 0.00 | 53 | 1008.5 |
| 20260509015052 | 51 | 253 | 2.0 | 8.0 | 0.00 | 0.00 | 0.00 | 52 | 1008.5 |
| 20260509014555 | 51 | 241 | 2.0 | 6.0 | 0.00 | 0.00 | 0.00 | 52 | 1008.5 |
| 20260509014051 | 51 | 254 | 2.0 | 6.0 | 0.00 | 0.00 | 0.00 | 52 | 1008.4 |
| 20260509013551 | 51 | 252 | 2.0 | 5.0 | 0.00 | 0.00 | 0.00 | 52 | 1008.3 |
| 20260509013059 | 51 | 0 | 1.0 | 5.0 | 0.00 | 0.00 | 0.00 | 51 | 1008.2 |
| 20260509012552 | 51 | 250 | 2.0 | 5.0 | 0.00 | 0.00 | 0.00 | 51 | 1008.0 |
| 20260509012052 | 51 | 254 | 1.0 | 7.0 | 0.00 | 0.00 | 0.00 | 51 | 1008.0 |
| 20260509011557 | 51 | 254 | 1.0 | 7.0 | 0.00 | 0.00 | 0.00 | 51 | 1008.0 |
| 20260509011051 | 51 | 254 | 2.0 | 7.0 | 0.00 | 0.00 | 0.00 | 51 | 1008.0 |
| 20260509010552 | 52 | 269 | 0.0 | 4.0 | 0.00 | 0.00 | 0.00 | 50 | 1008.0 |
| 20260509010054 | 52 | 269 | 1.0 | 7.0 | 0.00 | 0.00 | 0.00 | 50 | 1007.9 |
| 20260509005552 | 52 | 268 | 1.0 | 7.0 | 0.00 | 0.00 | 0.00 | 50 | 1007.9 |
| 20260509005049 | 52 | 236 | 1.0 | 5.0 | 0.00 | 0.00 | 0.00 | 50 | 1007.8 |
| 20260509004603 | 52 | 234 | 1.0 | 9.0 | 0.00 | 0.00 | 0.00 | 50 | 1007.7 |
| 20260509004048 | 52 | 0 | 3.0 | 9.0 | 0.00 | 0.00 | 0.00 | 49 | 1007.7 |
| 20260509003548 | 52 | 0 | 1.0 | 7.0 | 0.00 | 0.00 | 0.00 | 49 | 1007.6 |
| 20260509003058 | 52 | 234 | 1.0 | 7.0 | 0.00 | 0.00 | 0.00 | 49 | 1007.5 |
| 20260509002548 | 52 | 234 | 1.0 | 6.0 | 0.00 | 0.00 | 0.00 | 49 | 1007.5 |
| 20260509002048 | 52 | 276 | 2.0 | 4.0 | 0.00 | 0.00 | 0.00 | 49 | 1007.4 |
| 20260509001557 | 53 | 0 | 0.0 | 4.0 | 0.00 | 0.00 | 0.00 | 49 | 1007.4 |
| 20260509001049 | 53 | 276 | 1.0 | 4.0 | 0.00 | 0.00 | 0.00 | 49 | 1007.4 |
| 20260509000548 | 53 | 0 | 0.0 | 4.0 | 0.00 | 0.00 | 0.00 | 49 | 1007.3 |
| 20260508235549 | 53 | 281 | 0.0 | 8.0 | 0.00 | 0.00 | 0.00 | 48 | 1007.3 |
| 20260508235049 | 53 | 281 | 1.0 | 8.0 | 0.00 | 0.00 | 0.00 | 47 | 1007.3 |
| 20260508234557 | 53 | 0 | 1.0 | 7.0 | 0.00 | 0.00 | 0.00 | 46 | 1007.2 |
| 20260508234051 | 53 | 259 | 1.0 | 6.0 | 0.00 | 0.00 | 0.00 | 47 | 1007.3 |
| 20260508233547 | 53 | 0 | 0.0 | 4.0 | 0.00 | 0.00 | 0.00 | 46 | 1007.2 |
| 20260508233057 | 53 | 0 | 0.0 | 6.0 | 0.00 | 0.00 | 0.00 | 46 | 1007.2 |
| 20260508232554 | 53 | 0 | 1.0 | 6.0 | 0.00 | 0.00 | 0.00 | 45 | 1007.3 |
| 20260508232049 | 53 | 286 | 2.0 | 8.0 | 0.00 | 0.00 | 0.00 | 46 | 1007.3 |
| 20260508231555 | 53 | 0 | 1.0 | 8.0 | 0.00 | 0.00 | 0.00 | 46 | 1007.4 |
| 20260508231048 | 53 | 0 | 0.0 | 4.0 | 0.00 | 0.00 | 0.00 | 46 | 1007.3 |
| 20260508230550 | 53 | 296 | 1.0 | 5.0 | 0.00 | 0.00 | 0.00 | 45 | 1007.3 |